カタログに戻る

STARLINK-35574

運用中通信VLEO
NORAD 66111·PAYLOAD·🇺🇸 United States

打ち上げ Oct 19, 2025 から Vandenberg Space Force Base

Loading…

次のパス (今後24時間)

TLE

最新Source: CelesTrak SupGP

元期: Sep 14, 2026, 15:12 UTC

1 66111C 25236AB  26257.63381944  .00032298  00000+0  95456-3 0  2575
2 66111  53.1567 304.8125 0001180  84.1784 255.6329 15.34364038    19

AllMySatでSTARLINK-35574をリアルタイム追跡

Download on the App Store